This is the latest recevied weather packets stored in our database for station/object N6SPP. If no packets are shown the sender has not sent any weather packets the latest 10 day(s).
| Time | Temp. | Humidity | Pressure | Rain* | Wind** | Luminosity | Snow |
|---|---|---|---|---|---|---|---|
| 1778164388 | 14.44° C | 82% | 1020.8 hPa | 0 mm | - | 120 W/m² | - |
| 1778164084 | 14.44° C | 83% | 1021 hPa | 0 mm | - | 108 W/m² | - |
| 1778163780 | 14.44° C | 84% | 1020.7 hPa | 0 mm | - | 95 W/m² | - |
| 1778163476 | 13.89° C | 85% | 1020.8 hPa | 0 mm | - | 84 W/m² | - |
| 1778163168 | 13.89° C | 85% | 1020.9 hPa | 0 mm | - | 76 W/m² | - |
| 1778162864 | 13.89° C | 85% | 1020.8 hPa | 0 mm | - | 67 W/m² | - |
| 1778162562 | 13.89° C | 85% | 1020.8 hPa | 0 mm | - | 55 W/m² | - |
| 1778162259 | 13.33° C | 87% | 1020.6 hPa | 0 mm | - | 44 W/m² | - |
| 1778161956 | 13.33° C | 87% | 1020.5 hPa | 0 mm | - | 36 W/m² | - |
| 1778161652 | 13.33° C | 88% | 1020.5 hPa | 0 mm | - | 33 W/m² | - |
| 1778161349 | 12.78° C | 89% | 1020.6 hPa | 0 mm | - | 29 W/m² | - |
| 1778161045 | 12.78° C | 90% | 1020.5 hPa | 0 mm | - | 24 W/m² | - |
| 1778160742 | 12.22° C | 92% | 1020.5 hPa | 0 mm | - | 19 W/m² | - |
| 1778160439 | 11.67° C | 92% | 1020.4 hPa | 0 mm | - | 14 W/m² | - |
| 1778160136 | 11.67° C | 92% | 1020.4 hPa | 0 mm | - | 11 W/m² | - |
| 1778159832 | 11.67° C | 92% | 1020.2 hPa | 0 mm | - | 8 W/m² | - |
| 1778159530 | 11.67° C | 92% | 1020.2 hPa | 0 mm | - | 5 W/m² | - |
| 1778159227 | 11.67° C | 92% | 1020.2 hPa | 0 mm | - | 3 W/m² | - |
| 1778158924 | 11.67° C | 92% | 1020.1 hPa | 0 mm | - | 2 W/m² | - |
| 1778158623 | 11.67° C | 92% | 1020.2 hPa | 0 mm | - | 1 W/m² | - |
| 1778158320 | 11.67° C | 92% | 1020.1 hPa | 0 mm | - | 0 W/m² | - |
| 1778158016 | 12.22° C | 92% | 1020.1 hPa | 0 mm | - | 0 W/m² | - |
| 1778157714 | 12.22° C | 92% | 1020.1 hPa | 0 mm | - | 0 W/m² | - |
| 1778157412 | 12.22° C | 92% | 1020.2 hPa | 0 mm | - | 0 W/m² | - |
| 1778157109 | 12.22° C | 91% | 1020 hPa | 0 mm | - | 0 W/m² | - |
* Rain latest hour (hover to see other rain measurements)
** Current wind speed in m/s (hover to see current wind gust speed)